Back to Top

Language: 

My Weather Underground Personal Weather Station Historical Data with Graphs...

Delerius Weather Station Historical Data
Daily Summary for June 10, 2017 Units:  Metric    English   Both
« Previous Day
Next Day »
Daily Weekly Monthly Yearly Custom
  High: Low: Average:
Temperature: 19.3 °C 12.1 °C 15.4 °C
Dew Point: 16.5 °C 8.9 °C 13.3 °C
Humidity: 96 % 78 % 88 %
Wind Speed: 27.4 km/h 0 km/h 11.7 km/h
Wind Gust: 49.9 km/h - -
Wind:- - SSW
Pressure: 1013.4 hPa 1010.4 hPa -
Precipitation: 4.06 mm    
Historical Graphs
 
 
Tabular Data for June 10, 2017
Time Temperature Dew Point Pressure Wind Wind Speed Wind Gust Humidity Rainfall Rate (Hourly) solar Conditions
00:03 12.6 °C 9.1 °C 1013.1 hPa West 1.6 km/h 6.4 km/h 79 % 0 mm 0 W/m2
00:08 12.6 °C 9.2 °C 1013.1 hPa Calm   3.2 km/h 80 % 0 mm 0 W/m2
00:13 12.4 °C 9.1 °C 1013.1 hPa Calm     80 % 0 mm 0 W/m2
00:18 12.4 °C 9.2 °C 1013.1 hPa Calm   1.6 km/h 81 % 0 mm 0 W/m2
00:23 12.3 °C 8.9 °C 1013.1 hPa Calm   1.6 km/h 80 % 0 mm 0 W/m2
00:28 12.3 °C 9.1 °C 1013.1 hPa Calm   4.8 km/h 81 % 0 mm 0 W/m2
00:33 12.4 °C 9.2 °C 1013.1 hPa West 1.6 km/h 8 km/h 81 % 0 mm 0 W/m2
00:38 12.4 °C 9.2 °C 1013.4 hPa West 1.6 km/h 8 km/h 81 % 0 mm 0 W/m2
00:43 12.4 °C 9.2 °C 1013.1 hPa Calm   3.2 km/h 81 % 0 mm 0 W/m2
00:44 12.4 °C 9.2 °C 1013.1 hPa Calm   3.2 km/h 81 % 0 mm 0 W/m2
00:49 12.4 °C 9.2 °C 1013.4 hPa Calm   3.2 km/h 81 % 0 mm 0 W/m2
00:54 12.4 °C 9.2 °C 1013.4 hPa Calm     81 % 0 mm 0 W/m2
00:59 12.3 °C 9.3 °C 1013.4 hPa Calm     82 % 0 mm 0 W/m2
01:04 12.3 °C 9.3 °C 1013.1 hPa Calm     82 % 0 mm 0 W/m2
01:09 12.3 °C 9.3 °C 1013.1 hPa Calm     82 % 0 mm 0 W/m2
01:14 12.3 °C 9.3 °C 1013.1 hPa Calm     82 % 0 mm 0 W/m2
01:19 12.3 °C 9.5 °C 1013.1 hPa Calm     83 % 0 mm 0 W/m2
01:24 12.2 °C 9.4 °C 1013.1 hPa Calm     83 % 0 mm 0 W/m2
01:29 12.2 °C 9.4 °C 1013.1 hPa Calm     83 % 0 mm 0 W/m2
01:35 12.2 °C 9.4 °C 1013.1 hPa Calm     83 % 0 mm 0 W/m2
01:40 12.3 °C 9.7 °C 1013.1 hPa Calm     84 % 0 mm 0 W/m2
01:45 12.3 °C 9.7 °C 1013.1 hPa Calm     84 % 0 mm 0 W/m2
01:50 12.4 °C 9.9 °C 1013.1 hPa Calm     85 % 0 mm 0 W/m2
01:55 12.4 °C 9.9 °C 1013.1 hPa Calm     85 % 0 mm 0 W/m2
02:00 12.3 °C 9.8 °C 1013.1 hPa Calm   1.6 km/h 85 % 0 mm 0 W/m2
02:05 12.3 °C 9.8 °C 1013.4 hPa Calm   3.2 km/h 85 % 0 mm 0 W/m2
02:10 12.3 °C 9.8 °C 1013.1 hPa West 1.6 km/h 6.4 km/h 85 % 0 mm 0 W/m2
02:15 12.3 °C 9.8 °C 1013.1 hPa West 1.6 km/h 8 km/h 85 % 0 mm 0 W/m2
02:20 12.3 °C 9.8 °C 1013.1 hPa West 1.6 km/h 8 km/h 85 % 0 mm 0 W/m2
02:25 12.3 °C 9.8 °C 1012.8 hPa Calm   1.6 km/h 85 % 0 mm 0 W/m2
02:30 12.3 °C 9.8 °C 1012.8 hPa Calm     85 % 0 mm 0 W/m2
02:35 12.3 °C 10 °C 1012.8 hPa Calm     86 % 0 mm 0 W/m2
02:40 12.3 °C 10 °C 1012.8 hPa Calm     86 % 0 mm 0 W/m2
02:45 12.4 °C 10.1 °C 1012.8 hPa Calm     86 % 0 mm 0 W/m2
02:50 12.4 °C 10.3 °C 1012.8 hPa Calm     87 % 0 mm 0 W/m2
02:55 12.4 °C 10.3 °C 1013.1 hPa West 1.6 km/h 6.4 km/h 87 % 0 mm 0 W/m2
03:00 12.6 °C 10.3 °C 1012.8 hPa WSW 3.2 km/h 8 km/h 86 % 0 mm 0 W/m2
03:05 12.8 °C 10.5 °C 1013.1 hPa SSW 3.2 km/h 9.7 km/h 86 % 0 mm 0 W/m2
03:10 12.8 °C 10.5 °C 1013.1 hPa South 1.6 km/h 9.7 km/h 86 % 0 mm 0 W/m2
03:15 12.8 °C 10.5 °C 1013.1 hPa Calm   6.4 km/h 86 % 0 mm 0 W/m2
03:20 12.8 °C 10.5 °C 1013.1 hPa South 1.6 km/h 6.4 km/h 86 % 0 mm 0 W/m2
03:25 12.8 °C 10.5 °C 1013.1 hPa Calm   6.4 km/h 86 % 0 mm 0 W/m2
03:30 12.9 °C 10.8 °C 1013.1 hPa Calm   6.4 km/h 87 % 0 mm 0 W/m2
03:35 12.9 °C 10.8 °C 1013.1 hPa Calm   6.4 km/h 87 % 0 mm 0 W/m2
03:40 12.9 °C 10.8 °C 1013.1 hPa Calm   3.2 km/h 87 % 0.25 mm 0 W/m2
03:45 12.9 °C 10.8 °C 1013.1 hPa Calm   6.4 km/h 87 % 0.25 mm 0 W/m2
03:51 12.8 °C 10.7 °C 1013.1 hPa South 1.6 km/h 8 km/h 87 % 0.25 mm 0 W/m2
03:56 12.8 °C 10.8 °C 1013.1 hPa SSW 4.8 km/h 11.3 km/h 88 % 0.25 mm 0 W/m2
04:01 12.7 °C 10.8 °C 1013.1 hPa SSW 6.4 km/h 11.3 km/h 88 % 0.51 mm 0 W/m2
04:06 12.7 °C 10.8 °C 1012.8 hPa SSW 6.4 km/h 11.3 km/h 88 % 0.51 mm 0 W/m2
04:11 12.6 °C 10.7 °C 1012.8 hPa SW 6.4 km/h 9.7 km/h 88 % 0.51 mm 0 W/m2
04:16 12.6 °C 10.7 °C 1012.8 hPa SSW 6.4 km/h 11.3 km/h 88 % 0.51 mm 0 W/m2
04:21 12.5 °C 10.6 °C 1012.8 hPa SSW 8 km/h 12.9 km/h 88 % 0.51 mm 0 W/m2
04:26 12.5 °C 10.6 °C 1012.8 hPa SSW 9.7 km/h 14.5 km/h 88 % 0.51 mm 0 W/m2
04:31 12.5 °C 10.6 °C 1012.8 hPa SW 8 km/h 14.5 km/h 88 % 0.51 mm 0 W/m2
04:36 12.5 °C 10.6 °C 1012.8 hPa SW 6.4 km/h 12.9 km/h 88 % 0.51 mm 0 W/m2
04:46 12.4 °C 10.6 °C 1012.8 hPa SW 4.8 km/h 9.7 km/h 89 % 0.51 mm 0 W/m2
04:51 12.3 °C 10.6 °C 1012.8 hPa SW 3.2 km/h 9.7 km/h 89 % 0.51 mm 0 W/m2
04:56 12.3 °C 10.7 °C 1013.1 hPa SW 3.2 km/h 6.4 km/h 90 % 0.51 mm 0 W/m2
05:01 12.3 °C 10.7 °C 1013.1 hPa SW 3.2 km/h 8 km/h 90 % 0.51 mm 0 W/m2
05:06 12.4 °C 10.8 °C 1013.1 hPa SW 3.2 km/h 9.7 km/h 90 % 0.51 mm 0 W/m2
05:12 12.4 °C 10.8 °C 1012.8 hPa SSW 4.8 km/h 9.7 km/h 90 % 0.51 mm 5 W/m2
05:17 12.4 °C 10.8 °C 1012.8 hPa South 6.4 km/h 12.9 km/h 90 % 0.51 mm 7 W/m2
05:22 12.4 °C 10.8 °C 1013.1 hPa SSE 8 km/h 12.9 km/h 90 % 0.51 mm 7 W/m2
05:27 12.3 °C 10.7 °C 1013.1 hPa SSE 8 km/h 14.5 km/h 90 % 0.51 mm 5 W/m2
05:32 12.3 °C 10.7 °C 1013.1 hPa SSE 8 km/h 14.5 km/h 90 % 0.51 mm 7 W/m2
05:37 12.3 °C 10.7 °C 1013.1 hPa SSE 8 km/h 12.9 km/h 90 % 0.51 mm 9 W/m2
05:42 12.3 °C 10.9 °C 1013.1 hPa SSE 8 km/h 12.9 km/h 91 % 0.51 mm 12 W/m2
05:47 12.3 °C 10.9 °C 1013.1 hPa SSE 8 km/h 12.9 km/h 91 % 0.25 mm 19 W/m2
05:52 12.2 °C 10.8 °C 1012.8 hPa SE 9.7 km/h 14.5 km/h 91 % 0.51 mm 28 W/m2
05:57 12.2 °C 10.8 °C 1012.8 hPa SSE 9.7 km/h 14.5 km/h 91 % 0.51 mm 33 W/m2
06:02 12.2 °C 10.9 °C 1012.8 hPa SSE 9.7 km/h 16.1 km/h 92 % 0.51 mm 33 W/m2
06:07 12.2 °C 10.9 °C 1012.8 hPa SSE 9.7 km/h 16.1 km/h 92 % 0.51 mm 21 W/m2
06:12 12.2 °C 10.9 °C 1012.8 hPa SSE 9.7 km/h 19.3 km/h 92 % 0.51 mm 19 W/m2
06:17 12.2 °C 10.9 °C 1012.8 hPa SSE 9.7 km/h 19.3 km/h 92 % 0.51 mm 19 W/m2
06:22 12.2 °C 11.1 °C 1012.4 hPa SSE 9.7 km/h 17.7 km/h 93 % 0.76 mm 26 W/m2
06:27 12.1 °C 11 °C 1012.4 hPa SSE 8 km/h 17.7 km/h 93 % 0.51 mm 33 W/m2
06:32 12.1 °C 11 °C 1012.4 hPa SSE 8 km/h 14.5 km/h 93 % 0.76 mm 28 W/m2
06:37 12.1 °C 11 °C 1012.4 hPa SSE 8 km/h 14.5 km/h 93 % 1.02 mm 23 W/m2
06:42 12.1 °C 11 °C 1012.4 hPa SSE 9.7 km/h 16.1 km/h 93 % 1.02 mm 26 W/m2
06:47 12.1 °C 11.2 °C 1012.4 hPa SSE 8 km/h 16.1 km/h 94 % 1.27 mm 30 W/m2
06:52 12.1 °C 11.2 °C 1012.4 hPa SSE 8 km/h 16.1 km/h 94 % 1.02 mm 37 W/m2
06:57 12.1 °C 11.2 °C 1012.4 hPa SE 6.4 km/h 11.3 km/h 94 % 1.02 mm 47 W/m2
07:00 12.1 °C 11.2 °C 1012.4 hPa SE 6.4 km/h 11.3 km/h 94 % 1.02 mm 53 W/m2
07:05 12.2 °C 11.3 °C 1012.4 hPa SE 6.4 km/h 11.3 km/h 94 % 1.02 mm 51 W/m2
07:10 12.2 °C 11.3 °C 1012.4 hPa SE 4.8 km/h 11.3 km/h 94 % 1.27 mm 58 W/m2
07:15 12.3 °C 11.5 °C 1012.4 hPa SSE 4.8 km/h 11.3 km/h 95 % 1.02 mm 83 W/m2
07:20 12.3 °C 11.4 °C 1012.4 hPa SSE 6.4 km/h 14.5 km/h 94 % 1.02 mm 74 W/m2
07:25 12.4 °C 11.6 °C 1012.8 hPa SSE 9.7 km/h 14.5 km/h 95 % 0.76 mm 76 W/m2
07:30 12.4 °C 11.6 °C 1012.8 hPa South 9.7 km/h 16.1 km/h 95 % 0.51 mm 60 W/m2
07:35 12.4 °C 11.6 °C 1012.4 hPa SSE 9.7 km/h 16.1 km/h 95 % 0.51 mm 69 W/m2
07:40 12.4 °C 11.4 °C 1012.8 hPa SSE 11.3 km/h 16.1 km/h 94 % 0.51 mm 62 W/m2
07:45 12.4 °C 11.6 °C 1012.8 hPa SSE 9.7 km/h 16.1 km/h 95 % 0.25 mm 107 W/m2
07:50 12.6 °C 11.8 °C 1012.8 hPa SE 8 km/h 14.5 km/h 95 % 0.51 mm 102 W/m2
07:55 12.6 °C 11.8 °C 1012.8 hPa SSE 8 km/h 14.5 km/h 95 % 0.51 mm 105 W/m2
08:00 12.6 °C 11.8 °C 1012.8 hPa SSE 9.7 km/h 16.1 km/h 95 % 0.51 mm 109 W/m2
08:05 12.7 °C 11.9 °C 1012.4 hPa SE 11.3 km/h 17.7 km/h 95 % 0.51 mm 114 W/m2
08:10 12.7 °C 11.9 °C 1012.8 hPa SSE 11.3 km/h 17.7 km/h 95 % 0.51 mm 128 W/m2
08:15 12.7 °C 11.9 °C 1012.8 hPa SSE 9.7 km/h 17.7 km/h 95 % 0.51 mm 111 W/m2
08:20 12.7 °C 11.9 °C 1012.8 hPa SSE 11.3 km/h 20.9 km/h 95 % 0.51 mm 127 W/m2
08:25 12.8 °C 12 °C 1012.8 hPa SSE 11.3 km/h 20.9 km/h 95 % 0.51 mm 102 W/m2
08:30 12.8 °C 12 °C 1012.4 hPa SSE 11.3 km/h 19.3 km/h 95 % 0.76 mm 102 W/m2
08:31 12.8 °C 12 °C 1012.4 hPa SE 11.3 km/h 20.9 km/h 95 % 0.76 mm 88 W/m2
08:36 12.8 °C 12 °C 1012.4 hPa SSE 12.9 km/h 20.9 km/h 95 % 0.76 mm 102 W/m2
08:41 12.8 °C 12 °C 1012.4 hPa SSE 12.9 km/h 20.9 km/h 95 % 0.76 mm 146 W/m2
08:46 12.9 °C 12.1 °C 1012.4 hPa SSE 12.9 km/h 20.9 km/h 95 % 0.76 mm 130 W/m2
08:51 12.8 °C 12 °C 1012.4 hPa SSE 12.9 km/h 20.9 km/h 95 % 0.76 mm 142 W/m2
08:53 12.9 °C 12.1 °C 1012.4 hPa SSE 12.9 km/h 24.1 km/h 95 % 0.76 mm 127 W/m2
08:58 12.9 °C 12.1 °C 1012.4 hPa SSE 12.9 km/h 25.7 km/h 95 % 0.51 mm 118 W/m2
09:03 12.9 °C 12.1 °C 1012.4 hPa SSE 16.1 km/h 25.7 km/h 95 % 0.51 mm 139 W/m2
09:08 13 °C 12.2 °C 1012.4 hPa South 16.1 km/h 30.6 km/h 95 % 0.51 mm 156 W/m2
09:13 13.1 °C 12.3 °C 1012.4 hPa South 16.1 km/h 30.6 km/h 95 % 0.51 mm 146 W/m2
09:18 13.1 °C 12.3 °C 1012.4 hPa South 14.5 km/h 25.7 km/h 95 % 0.51 mm 134 W/m2
09:23 13.1 °C 12.3 °C 1012.4 hPa South 12.9 km/h 25.7 km/h 95 % 0.51 mm 148 W/m2
09:28 13.2 °C 12.4 °C 1012.1 hPa South 12.9 km/h 25.7 km/h 95 % 0.25 mm 158 W/m2
09:33 13.3 °C 12.5 °C 1012.1 hPa South 14.5 km/h 25.7 km/h 95 % 0.25 mm 183 W/m2
09:38 13.4 °C 12.6 °C 1012.1 hPa SSE 12.9 km/h 22.5 km/h 95 % 0.25 mm 220 W/m2
09:43 13.5 °C 12.7 °C 1012.1 hPa South 12.9 km/h 24.1 km/h 95 % 0.25 mm 144 W/m2
09:49 13.4 °C 12.6 °C 1012.1 hPa South 12.9 km/h 25.7 km/h 95 % 0.25 mm 102 W/m2
09:54 13.4 °C 12.6 °C 1012.1 hPa SSE 14.5 km/h 25.7 km/h 95 % 0.51 mm 127 W/m2
09:59 13.4 °C 12.6 °C 1012.1 hPa South 12.9 km/h 25.7 km/h 95 % 0.51 mm 135 W/m2
10:04 13.4 °C 12.6 °C 1012.1 hPa South 11.3 km/h 24.1 km/h 95 % 0.51 mm 141 W/m2
10:09 13.5 °C 12.7 °C 1012.1 hPa SSE 14.5 km/h 29 km/h 95 % 0.51 mm 118 W/m2
10:14 13.6 °C 12.8 °C 1012.1 hPa SSE 14.5 km/h 29 km/h 95 % 0.51 mm 121 W/m2
10:19 13.6 °C 12.8 °C 1012.1 hPa SSE 12.9 km/h 25.7 km/h 95 % 0.51 mm 98 W/m2
10:24 13.5 °C 12.7 °C 1012.1 hPa SSE 12.9 km/h 25.7 km/h 95 % 0.51 mm 81 W/m2
10:29 13.6 °C 12.8 °C 1012.1 hPa SSE 12.9 km/h 24.1 km/h 95 % 0.51 mm 109 W/m2
10:34 13.6 °C 12.8 °C 1011.7 hPa SSE 12.9 km/h 22.5 km/h 95 % 0.51 mm 91 W/m2
10:39 13.6 °C 12.8 °C 1011.7 hPa SSE 11.3 km/h 19.3 km/h 95 % 0.51 mm 72 W/m2
10:44 13.6 °C 12.8 °C 1012.1 hPa SE 11.3 km/h 20.9 km/h 95 % 0.51 mm 81 W/m2
10:49 13.6 °C 12.8 °C 1012.1 hPa SE 12.9 km/h 22.5 km/h 95 % 0.51 mm 90 W/m2
10:54 13.7 °C 12.9 °C 1011.7 hPa SE 11.3 km/h 22.5 km/h 95 % 0.25 mm 116 W/m2
10:59 13.8 °C 13.2 °C 1011.7 hPa SE 11.3 km/h 22.5 km/h 96 % 0.25 mm 116 W/m2
11:04 13.9 °C 13.1 °C 1011.7 hPa SE 11.3 km/h 22.5 km/h 95 % 0.25 mm 144 W/m2
11:09 14 °C 13.2 °C 1011.7 hPa SSE 11.3 km/h 20.9 km/h 95 % 0.25 mm 190 W/m2
11:14 14.1 °C 13.3 °C 1011.7 hPa SSE 14.5 km/h 32.2 km/h 95 % 0 mm 185 W/m2
11:19 14.3 °C 13.5 °C 1011.7 hPa SSE 14.5 km/h 32.2 km/h 95 % 0 mm 162 W/m2
11:24 14.4 °C 13.6 °C 1011.7 hPa SSE 14.5 km/h 40.2 km/h 95 % 0 mm 325 W/m2
11:29 14.7 °C 13.9 °C 1011.4 hPa South 16.1 km/h 40.2 km/h 95 % 0 mm 325 W/m2
11:34 14.9 °C 13.9 °C 1011.4 hPa South 16.1 km/h 35.4 km/h 94 % 0 mm 380 W/m2
11:35 14.9 °C 13.9 °C 1011.7 hPa South 16.1 km/h 35.4 km/h 94 % 0 mm 415 W/m2
11:40 15.2 °C 14.1 °C 1011.4 hPa SSW 19.3 km/h 35.4 km/h 93 % 0 mm 464 W/m2
11:45 15.3 °C 14 °C 1011.4 hPa SSW 19.3 km/h 35.4 km/h 92 % 0 mm 265 W/m2
11:50 15.5 °C 14.1 °C 1011.4 hPa South 19.3 km/h 35.4 km/h 91 % 0 mm 279 W/m2
11:55 15.6 °C 13.9 °C 1011.4 hPa South 19.3 km/h 32.2 km/h 90 % 0 mm 308 W/m2
12:00 15.7 °C 14.1 °C 1011.4 hPa SSW 19.3 km/h 38.6 km/h 90 % 0 mm 446 W/m2
12:05 15.9 °C 14.1 °C 1011.1 hPa SSW 20.9 km/h 38.6 km/h 89 % 0 mm 367 W/m2
12:10 16.1 °C 14.3 °C 1011.4 hPa South 19.3 km/h 33.8 km/h 89 % 0 mm 390 W/m2
12:15 16.3 °C 14.3 °C 1011.4 hPa SSW 17.7 km/h 32.2 km/h 88 % 0 mm 492 W/m2
12:20 16.5 °C 14.2 °C 1011.4 hPa SSW 22.5 km/h 45.1 km/h 86 % 0 mm 413 W/m2
12:25 16.8 °C 14.6 °C 1011.1 hPa SSW 22.5 km/h 45.1 km/h 87 % 0 mm 786 W/m2
12:31 17.1 °C 14.6 °C 1011.1 hPa SSW 24.1 km/h 45.1 km/h 85 % 0 mm 496 W/m2
12:36 17.2 °C 14.4 °C 1010.7 hPa SSW 24.1 km/h 45.1 km/h 84 % 0 mm 492 W/m2
12:41 17.2 °C 14.4 °C 1011.1 hPa SSW 22.5 km/h 43.5 km/h 84 % 0 mm 438 W/m2
12:43 17.2 °C 14.4 °C 1011.1 hPa SSW 22.5 km/h 43.5 km/h 84 % 0 mm 397 W/m2
12:48 17.3 °C 14.4 °C 1011.1 hPa SSW 22.5 km/h 45.1 km/h 83 % 0 mm 417 W/m2
12:53 17.3 °C 14.2 °C 1010.7 hPa SSW 22.5 km/h 45.1 km/h 82 % 0 mm 499 W/m2
12:58 17.4 °C 14.3 °C 1010.7 hPa SSW 25.7 km/h 41.8 km/h 82 % 0 mm 605 W/m2
13:03 17.7 °C 14.8 °C 1011.1 hPa SW 27.4 km/h 41.8 km/h 83 % 0 mm 714 W/m2
13:08 17.9 °C 14.6 °C 1011.1 hPa SSW 25.7 km/h 46.7 km/h 81 % 0 mm 577 W/m2
13:13 18.2 °C 14.9 °C 1011.1 hPa SW 25.7 km/h 46.7 km/h 81 % 0 mm 896 W/m2
13:19 18.5 °C 15.2 °C 1010.7 hPa SSW 22.5 km/h 43.5 km/h 81 % 0 mm 679 W/m2
13:23 18.8 °C 15.3 °C 1010.7 hPa SSW 22.5 km/h 40.2 km/h 80 % 0 mm 538 W/m2
13:29 18.8 °C 15.1 °C 1010.7 hPa SSW 22.5 km/h 38.6 km/h 79 % 0 mm 387 W/m2
13:34 18.8 °C 15.1 °C 1010.7 hPa SSW 24.1 km/h 37 km/h 79 % 0 mm 439 W/m2
13:39 18.8 °C 14.9 °C 1010.7 hPa SSW 24.1 km/h 46.7 km/h 78 % 0 mm 461 W/m2
13:44 18.8 °C 15.1 °C 1010.7 hPa SSW 22.5 km/h 46.7 km/h 79 % 0 mm 429 W/m2
13:49 18.9 °C 15.2 °C 1010.7 hPa SSW 20.9 km/h 41.8 km/h 79 % 0 mm 489 W/m2
13:54 18.9 °C 15.2 °C 1010.7 hPa SSW 22.5 km/h 49.9 km/h 79 % 0 mm 446 W/m2
13:59 18.9 °C 15.2 °C 1010.7 hPa SSW 24.1 km/h 49.9 km/h 79 % 0 mm 503 W/m2
14:04 19.1 °C 15.4 °C 1010.7 hPa SSW 20.9 km/h 40.2 km/h 79 % 0 mm 531 W/m2
14:09 19.1 °C 15.2 °C 1010.7 hPa SSW 24.1 km/h 46.7 km/h 78 % 0 mm 459 W/m2
14:14 19.1 °C 15.4 °C 1010.7 hPa SW 27.4 km/h 46.7 km/h 79 % 0 mm 489 W/m2
14:19 19.1 °C 15.6 °C 1010.7 hPa SW 24.1 km/h 41.8 km/h 80 % 0 mm 427 W/m2
14:24 19.2 °C 15.7 °C 1010.7 hPa SW 20.9 km/h 37 km/h 80 % 0 mm 478 W/m2
14:29 19.3 °C 15.8 °C 1010.7 hPa SW 19.3 km/h 33.8 km/h 80 % 0 mm 417 W/m2
14:34 19.3 °C 15.4 °C 1010.7 hPa SSW 22.5 km/h 41.8 km/h 78 % 0 mm 343 W/m2
14:39 19.2 °C 15.3 °C 1010.7 hPa SW 25.7 km/h 45.1 km/h 78 % 0 mm 332 W/m2
14:44 19.2 °C 15.4 °C 1010.7 hPa SSW 27.4 km/h 45.1 km/h 79 % 0 mm 392 W/m2
14:49 19.2 °C 15.4 °C 1010.7 hPa SSW 25.7 km/h 45.1 km/h 79 % 0 mm 339 W/m2
14:54 19.2 °C 15.4 °C 1010.7 hPa SW 22.5 km/h 38.6 km/h 79 % 0 mm 327 W/m2
14:59 19.2 °C 15.4 °C 1010.7 hPa SW 24.1 km/h 40.2 km/h 79 % 0 mm 352 W/m2
15:04 19.2 °C 15.4 °C 1010.7 hPa SW 25.7 km/h 40.2 km/h 79 % 0 mm 334 W/m2
15:09 19.1 °C 15.6 °C 1010.7 hPa SSW 25.7 km/h 41.8 km/h 80 % 0 mm 299 W/m2
15:14 19.1 °C 15.6 °C 1010.7 hPa SSW 25.7 km/h 41.8 km/h 80 % 0 mm 269 W/m2
15:19 19 °C 15.4 °C 1010.7 hPa SSW 24.1 km/h 37 km/h 80 % 0 mm 244 W/m2
15:24 18.9 °C 15.4 °C 1010.7 hPa SSW 22.5 km/h 37 km/h 80 % 0 mm 192 W/m2
15:29 18.9 °C 15.6 °C 1010.7 hPa SSW 20.9 km/h 37 km/h 81 % 0 mm 148 W/m2
15:34 18.8 °C 15.4 °C 1010.7 hPa SSW 17.7 km/h 30.6 km/h 81 % 0 mm 134 W/m2
15:39 18.8 °C 15.4 °C 1010.7 hPa SSW 17.7 km/h 32.2 km/h 81 % 0 mm 114 W/m2
15:44 18.8 °C 15.7 °C 1010.7 hPa SSW 17.7 km/h 32.2 km/h 82 % 0 mm 109 W/m2
15:45 18.8 °C 15.7 °C 1010.7 hPa SSW 17.7 km/h 32.2 km/h 82 % 0 mm 105 W/m2
15:50 18.7 °C 15.6 °C 1010.7 hPa South 17.7 km/h 35.4 km/h 82 % 0 mm 88 W/m2
15:55 18.7 °C 15.6 °C 1010.7 hPa SSW 19.3 km/h 35.4 km/h 82 % 0 mm 113 W/m2
16:00 18.7 °C 15.6 °C 1010.7 hPa SSW 17.7 km/h 32.2 km/h 82 % 0 mm 88 W/m2
16:05 18.7 °C 15.6 °C 1010.7 hPa SSW 16.1 km/h 29 km/h 82 % 0 mm 91 W/m2
16:10 18.7 °C 15.6 °C 1010.7 hPa SSW 16.1 km/h 25.7 km/h 82 % 0 mm 93 W/m2
16:15 18.7 °C 15.6 °C 1010.7 hPa SSW 16.1 km/h 30.6 km/h 82 % 0 mm 83 W/m2
16:20 18.7 °C 15.6 °C 1010.7 hPa SSW 16.1 km/h 30.6 km/h 82 % 0 mm 69 W/m2
16:25 18.8 °C 15.7 °C 1010.4 hPa South 12.9 km/h 24.1 km/h 82 % 0 mm 77 W/m2
16:30 18.8 °C 15.8 °C 1010.4 hPa South 12.9 km/h 25.7 km/h 83 % 0 mm 67 W/m2
16:35 18.8 °C 15.8 °C 1010.4 hPa South 11.3 km/h 25.7 km/h 83 % 0 mm 69 W/m2
16:40 18.8 °C 15.8 °C 1010.4 hPa SSW 11.3 km/h 22.5 km/h 83 % 0 mm 60 W/m2
16:41 18.8 °C 15.8 °C 1010.4 hPa SSW 11.3 km/h 22.5 km/h 83 % 0 mm 60 W/m2
16:46 18.8 °C 15.8 °C 1010.4 hPa SSW 12.9 km/h 22.5 km/h 83 % 0 mm 47 W/m2
16:51 18.8 °C 15.8 °C 1010.4 hPa South 12.9 km/h 20.9 km/h 83 % 0 mm 47 W/m2
16:56 18.8 °C 15.8 °C 1010.4 hPa SSW 12.9 km/h 25.7 km/h 83 % 0 mm 49 W/m2
17:01 18.9 °C 15.9 °C 1010.4 hPa SSW 14.5 km/h 30.6 km/h 83 % 0 mm 49 W/m2
17:06 18.9 °C 15.9 °C 1010.4 hPa SSW 12.9 km/h 30.6 km/h 83 % 0 mm 40 W/m2
17:11 18.9 °C 15.9 °C 1010.4 hPa SSW 12.9 km/h 22.5 km/h 83 % 0 mm 32 W/m2
17:16 18.9 °C 15.9 °C 1010.4 hPa SSW 12.9 km/h 22.5 km/h 83 % 0 mm 33 W/m2
17:21 18.9 °C 15.9 °C 1010.4 hPa SSW 12.9 km/h 22.5 km/h 83 % 0 mm 56 W/m2
17:26 18.9 °C 16.1 °C 1010.4 hPa South 11.3 km/h 20.9 km/h 84 % 0 mm 53 W/m2
17:31 18.8 °C 16.2 °C 1010.4 hPa South 9.7 km/h 20.9 km/h 85 % 0 mm 65 W/m2
17:36 18.7 °C 16.3 °C 1010.4 hPa South 8 km/h 17.7 km/h 86 % 0 mm 54 W/m2
17:41 18.6 °C 16.2 °C 1010.4 hPa SSW 9.7 km/h 17.7 km/h 86 % 0 mm 51 W/m2
17:46 18.6 °C 16.4 °C 1010.4 hPa South 8 km/h 17.7 km/h 87 % 0 mm 65 W/m2
17:51 18.6 °C 16.4 °C 1010.4 hPa South 8 km/h 19.3 km/h 87 % 0 mm 65 W/m2
17:56 18.6 °C 16.4 °C 1010.4 hPa South 9.7 km/h 19.3 km/h 87 % 0 mm 98 W/m2
18:01 18.7 °C 16.5 °C 1010.4 hPa SSW 11.3 km/h 17.7 km/h 87 % 0 mm 102 W/m2
18:06 18.7 °C 16.5 °C 1010.4 hPa SSW 12.9 km/h 24.1 km/h 87 % 0 mm 76 W/m2
18:11 18.7 °C 16.3 °C 1010.4 hPa SSW 14.5 km/h 24.1 km/h 86 % 0 mm 83 W/m2
18:16 18.8 °C 16.4 °C 1010.4 hPa SSW 16.1 km/h 32.2 km/h 86 % 0 mm 77 W/m2
18:21 18.9 °C 16.5 °C 1010.4 hPa SSW 16.1 km/h 33.8 km/h 86 % 0 mm 70 W/m2
18:26 18.9 °C 16.3 °C 1010.4 hPa SSW 14.5 km/h 33.8 km/h 85 % 0 mm 60 W/m2
18:31 18.9 °C 16.3 °C 1010.4 hPa SSW 12.9 km/h 29 km/h 85 % 0 mm 69 W/m2
18:36 18.9 °C 16.3 °C 1010.4 hPa SSW 14.5 km/h 29 km/h 85 % 0 mm 54 W/m2
18:41 18.9 °C 16.3 °C 1010.4 hPa SSW 16.1 km/h 29 km/h 85 % 0 mm 53 W/m2
18:46 18.9 °C 16.3 °C 1010.4 hPa SSW 16.1 km/h 29 km/h 85 % 0 mm 44 W/m2
18:51 18.9 °C 16.3 °C 1010.4 hPa SSW 14.5 km/h 24.1 km/h 85 % 0 mm 33 W/m2
18:56 18.9 °C 16.3 °C 1010.4 hPa SSW 14.5 km/h 22.5 km/h 85 % 0 mm 35 W/m2
19:01 18.8 °C 16.4 °C 1010.4 hPa SSW 14.5 km/h 24.1 km/h 86 % 0 mm 35 W/m2
19:06 18.8 °C 16.4 °C 1010.4 hPa SSW 14.5 km/h 24.1 km/h 86 % 0 mm 35 W/m2
19:11 18.8 °C 16.4 °C 1010.4 hPa SSW 16.1 km/h 29 km/h 86 % 0 mm 40 W/m2
19:15 18.8 °C 16.4 °C 1010.4 hPa SSW 14.5 km/h 29 km/h 86 % 0 mm 46 W/m2
19:20 18.8 °C 16.4 °C 1010.4 hPa SSW 14.5 km/h 22.5 km/h 86 % 0 mm 39 W/m2
19:25 18.8 °C 16.4 °C 1010.4 hPa SSW 14.5 km/h 24.1 km/h 86 % 0 mm 33 W/m2
19:30 18.8 °C 16.4 °C 1010.4 hPa SSW 16.1 km/h 25.7 km/h 86 % 0 mm 26 W/m2
19:35 18.8 °C 16.4 °C 1010.4 hPa SSW 14.5 km/h 25.7 km/h 86 % 0 mm 16 W/m2
19:40 18.7 °C 16.3 °C 1010.4 hPa SSW 14.5 km/h 22.5 km/h 86 % 0 mm 14 W/m2
19:45 18.7 °C 16.3 °C 1010.4 hPa SW 14.5 km/h 24.1 km/h 86 % 0 mm 16 W/m2
19:50 18.6 °C 16.2 °C 1010.4 hPa SW 14.5 km/h 24.1 km/h 86 % 0 mm 16 W/m2
19:55 18.6 °C 16.2 °C 1010.4 hPa SW 14.5 km/h 22.5 km/h 86 % 0 mm 14 W/m2
20:00 18.6 °C 16.2 °C 1010.4 hPa SSW 12.9 km/h 22.5 km/h 86 % 0 mm 16 W/m2
20:05 18.6 °C 16.4 °C 1010.4 hPa SSW 12.9 km/h 20.9 km/h 87 % 0 mm 18 W/m2
20:10 18.5 °C 16.3 °C 1010.4 hPa SSW 14.5 km/h 33.8 km/h 87 % 0 mm 14 W/m2
20:15 18.5 °C 16.3 °C 1010.4 hPa SSW 16.1 km/h 33.8 km/h 87 % 0 mm 16 W/m2
20:20 18.4 °C 16.2 °C 1010.4 hPa SSW 16.1 km/h 29 km/h 87 % 0 mm 18 W/m2
20:25 18.4 °C 16.2 °C 1010.4 hPa SSW 14.5 km/h 24.1 km/h 87 % 0 mm 21 W/m2
20:30 18.4 °C 16.2 °C 1010.4 hPa SSW 14.5 km/h 24.1 km/h 87 % 0 mm 14 W/m2
20:35 18.4 °C 16.2 °C 1010.4 hPa SSW 14.5 km/h 24.1 km/h 87 % 0 mm 9 W/m2
20:40 18.3 °C 16.1 °C 1010.4 hPa SSW 14.5 km/h 24.1 km/h 87 % 0 mm 9 W/m2
20:45 18.2 °C 16.2 °C 1010.4 hPa SSW 12.9 km/h 24.1 km/h 88 % 0 mm 5 W/m2
20:50 18.1 °C 16.3 °C 1010.4 hPa SSW 11.3 km/h 19.3 km/h 89 % 0 mm 7 W/m2
20:55 18.1 °C 16.3 °C 1010.4 hPa SSW 11.3 km/h 20.9 km/h 89 % 0 mm 5 W/m2
21:00 18 °C 16.2 °C 1010.4 hPa SSW 11.3 km/h 20.9 km/h 89 % 0 mm 0 W/m2
21:05 17.9 °C 16.1 °C 1010.4 hPa SSW 12.9 km/h 24.1 km/h 89 % 0 mm 0 W/m2
21:10 17.8 °C 16.1 °C 1010.4 hPa SW 11.3 km/h 24.1 km/h 90 % 0 mm 0 W/m2
21:15 17.7 °C 16.1 °C 1010.4 hPa SW 9.7 km/h 19.3 km/h 90 % 0 mm 0 W/m2
21:20 17.6 °C 16.1 °C 1010.7 hPa SW 8 km/h 19.3 km/h 91 % 0 mm 0 W/m2
21:25 17.5 °C 16.2 °C 1010.7 hPa WSW 8 km/h 12.9 km/h 92 % 0 mm 0 W/m2
21:30 17.3 °C 16 °C 1010.7 hPa WSW 9.7 km/h 19.3 km/h 92 % 0 mm 0 W/m2
21:35 17.2 °C 15.9 °C 1010.7 hPa WSW 11.3 km/h 19.3 km/h 92 % 0 mm 0 W/m2
21:40 17 °C 15.7 °C 1010.7 hPa WSW 11.3 km/h 19.3 km/h 92 % 0 mm 0 W/m2
21:45 16.8 °C 15.5 °C 1011.1 hPa WSW 14.5 km/h 35.4 km/h 92 % 0 mm 0 W/m2
21:50 16.7 °C 15.6 °C 1010.7 hPa WSW 16.1 km/h 35.4 km/h 93 % 0 mm 0 W/m2
21:55 16.6 °C 15.4 °C 1010.7 hPa SW 14.5 km/h 32.2 km/h 93 % 0 mm 0 W/m2
22:00 16.5 °C 15.2 °C 1010.7 hPa SW 12.9 km/h 24.1 km/h 92 % 0 mm 0 W/m2
22:06 16.5 °C 15.2 °C 1010.7 hPa SW 14.5 km/h 24.1 km/h 92 % 0 mm 0 W/m2
22:11 16.5 °C 15 °C 1010.7 hPa SW 14.5 km/h 22.5 km/h 91 % 0 mm 0 W/m2
22:15 16.5 °C 14.8 °C 1010.7 hPa WSW 12.9 km/h 20.9 km/h 90 % 0 mm 0 W/m2
22:20 16.4 °C 14.8 °C 1010.7 hPa SW 14.5 km/h 32.2 km/h 90 % 0 mm 0 W/m2
22:25 16.4 °C 14.6 °C 1011.1 hPa SW 16.1 km/h 32.2 km/h 89 % 0 mm 0 W/m2
22:30 16.4 °C 14.6 °C 1011.1 hPa SW 14.5 km/h 25.7 km/h 89 % 0 mm 0 W/m2
22:36 16.4 °C 14.4 °C 1011.1 hPa SW 14.5 km/h 29 km/h 88 % 0 mm 0 W/m2
22:41 16.3 °C 14.3 °C 1011.1 hPa SW 14.5 km/h 29 km/h 88 % 0 mm 0 W/m2
22:46 16.3 °C 14.3 °C 1011.1 hPa SW 12.9 km/h 19.3 km/h 88 % 0 mm 0 W/m2
22:51 16.2 °C 14.2 °C 1011.1 hPa SW 14.5 km/h 20.9 km/h 88 % 0 mm 0 W/m2
22:56 16.1 °C 14.1 °C 1011.1 hPa SW 12.9 km/h 20.9 km/h 88 % 0 mm 0 W/m2
23:01 15.9 °C 13.9 °C 1011.1 hPa SW 11.3 km/h 20.9 km/h 88 % 0 mm 0 W/m2
23:06 15.8 °C 13.8 °C 1011.1 hPa SW 11.3 km/h 22.5 km/h 88 % 0 mm 0 W/m2
23:16 15.6 °C 13.4 °C 1011.1 hPa SW 11.3 km/h 16.1 km/h 87 % 0 mm 0 W/m2
23:21 15.4 °C 13.2 °C 1011.1 hPa SW 9.7 km/h 16.1 km/h 87 % 0 mm 0 W/m2
23:26 15.3 °C 13.2 °C 1011.1 hPa SW 9.7 km/h 16.1 km/h 87 % 0 mm 0 W/m2
23:31 15.2 °C 13.1 °C 1011.1 hPa WSW 9.7 km/h 17.7 km/h 87 % 0 mm 0 W/m2
23:36 15.1 °C 12.9 °C 1011.1 hPa WSW 9.7 km/h 19.3 km/h 87 % 0 mm 0 W/m2
23:41 14.9 °C 12.6 °C 1011.1 hPa WSW 9.7 km/h 19.3 km/h 86 % 0 mm 0 W/m2
23:46 14.8 °C 12.5 °C 1011.1 hPa WSW 9.7 km/h 16.1 km/h 86 % 0 mm 0 W/m2
23:51 14.8 °C 12.5 °C 1011.4 hPa WSW 11.3 km/h 20.9 km/h 86 % 0 mm 0 W/m2
23:56 14.8 °C 12.3 °C 1011.4 hPa SW 14.5 km/h 22.5 km/h 85 % 0 mm 0 W/m2
Delerius-Weather
Compliments of Weather Underground - 2.25 mb

Data updates at regular intervals.